Regional Weather Roundup
Issued by NWS

Home | Current Version | Previous Version | Text Only | Print | Product List | Glossary Off
Versions: 1 2 3 4 5 6 7 8 9 10 11 12 13 14 15 16 17 18 19 20 21 22 23 24 25 26 27 28 29 30 31 32 33 34 35 36 37 38 39 40 41 42 43 44 45 46 47 48 49 50

000
ASUS45 KPSR 220310
RWRAZ

ARIZONA HOURLY REGIONAL WEATHER ROUNDUP
NATIONAL WEATHER SERVICE PHOENIX AZ
800 PM MST SAT JAN 21 2017

NOTE: FAIR INDICATES FEW OR NO CLOUDS BELOW 12,000 FEET WITH NO
SIGNIFICANT WEATHER AND/OR OBSTRUCTIONS TO VISIBILITY.

AZZ001>003-036-220400-
NORTHWEST ARIZONA

CITY           SKY/WX    TMP DP  RH WIND       PRES   REMARKS
BULLHEAD CITY  CLEAR     55  36  47 E6        29.96R
KINGMAN        CLEAR     40  25  55 S9        29.97R WCI  34
$$

AZZ004>008-015-016-018-220400-
NORTH CENTRAL ARIZONA

CITY           SKY/WX    TMP DP  RH WIND       PRES   REMARKS
GRAND CANYON   CLEAR     11  11 100 CALM      29.95R
WILLIAMS       CLEAR     21  19  93 CALM      29.96R
PRESCOTT       CLEAR     33  28  81 SW10      29.99R WCI  25
FLAGSTAFF      CLEAR     23  20  88 CALM      29.94R
PAYSON         CLEAR     32  30  93 S5        30.01R WCI  27
PAGE           CLEAR     41  19  41 W9        29.88R
$$

AZZ009>014-017-220400-
NORTHEAST ARIZONA

CITY           SKY/WX    TMP DP  RH WIND       PRES   REMARKS
WINSLOW        CLEAR     35  25  66 W10       29.95R WCI  27
SAINT JOHNS    CLEAR     32  24  72 W17       29.90R WCI  21
SHOW LOW       MOCLDY    25  23  93 SW10      29.95R WCI  15
$$

AZZ023-220400-
GREATER PHOENIX AREA

CITY           SKY/WX    TMP DP  RH WIND       PRES   REMARKS
PHOENIX        PTCLDY    52  37  56 SW7       29.99R
BUCKEYE        CLEAR     48  37  66 CALM      30.01R
LUKE AFB       CLEAR     50  40  67 CALM      29.99R
DEER VALLEY    CLEAR     48  37  65 CALM      29.99R
SCOTTSDALE     CLEAR     49  35  58 CALM      30.01R
MESA-FALCON    PTCLDY   N/A N/A N/A S7        29.98R
MESA-GATEWAY   PTCLDY    48  39  71 SE3       30.02R
CHANDLER       CLEAR     50  37  62 SE7       30.01R
$$

AZZ027-028-220400-
SOUTHWEST MARICOPA COUNTY AND PINAL COUNTY

CITY           SKY/WX    TMP DP  RH WIND       PRES   REMARKS
CASA GRANDE    CLEAR     51  37  58 W7        30.03R
GILA BEND      FAIR      51  39  63 S7        30.01R
$$

AZZ503-504-507>509-220400-
SOUTHEAST ARIZONA

CITY           SKY/WX    TMP DP  RH WIND       PRES   REMARKS
TUCSON         CLEAR     48  31  51 W7        30.06R
DAVIS-MONTHAN  CLEAR     46  31  57 W3        30.05R
RYAN FIELD     CLEAR     46  34  61 W8        30.06R
NOGALES        CLEAR     39  27  62 CALM      30.05R
SIERRA VISTA   CLEAR     38  24  57 W9        30.04R WCI  32
DOUGLAS        CLEAR     38  26  62 N8        30.04R WCI  32
SAFFORD        CLEAR     41  33  73 NW10      29.98R
$$

AZZ020-021-025-026-031-220400-
SOUTHWEST ARIZONA

CITY           SKY/WX    TMP DP  RH WIND       PRES   REMARKS
YUMA           CLEAR     56  39  53 W13       30.01R
$$

CAZ031-033-041-043-047-048-061-220400-
SOUTHERN CALIFORNIA

CITY           SKY/WX    TMP DP  RH WIND       PRES   REMARKS
DOWNTOWN L.A.  MOCLDY    57  48  72 CALM      30.05R
L.A. AIRPORT   CLOUDY    56  48  74 SW13      30.06R
SAN DIEGO      MOCLDY    57  44  62 CALM      30.08R
BURBANK        CLOUDY    54  41  61 SE7       30.03R
ONTARIO        MOCLDY    51  44  77 W9        30.05R
RIVERSIDE      PTCLDY    51  45  79 VRB3      30.05R
PALM SPRINGS   PTCLDY    56  39  53 CALM      30.00R
EL CENTRO NAS  CLEAR     54  40  59 SW10      30.02R
IMPERIAL       CLEAR     55  42  61 SW9       30.00R
BLYTHE         CLEAR     57  40  52 SW6       29.97R
NEEDLES        CLEAR     53  37  54 W13       29.95R
$$

NVZ020-UTZ003-220400-
SOUTHERN NEVADA-UTAH

CITY           SKY/WX    TMP DP  RH WIND       PRES   REMARKS
LAS VEGAS      CLEAR     49  30  48 S5        29.93R
SALT LAKE CITY MOCLDY    33  29  85 S3        29.85R
$$

NMZ009-TXZ055-220400-
NEW MEXICO-WEST TEXAS

CITY           SKY/WX    TMP DP  RH WIND       PRES   REMARKS
ALBUQUERQUE    MOCLDY    38  22  52 NW6       29.74R WCI  33
EL PASO        PTCLDY    45  23  42 W32G49    29.83R
$$


........................KEY........................
SKY/WX - SKY CONDITION/WEATHER
TMP    - TEMPERATURE IN FAHRENHEIT
DP     - DEW POINT IN FAHRENHEIT
RH     - RELATIVE HUMIDITY IN PERCENT
WIND   - DIRECTION AND SPEED IN MILES PER HOUR (MPH)
VRB    - VARIABLE WIND DIRECTION
PRES   - MEAN SEA LEVEL PRESSURE IN INCHES OF MERCURY
         F - FALLING PRESSURE   R - RISING PRESSURE
         S - STEADY PRESSURE
VSB    - VISIBILITY IN MILES
HX     - HEAT INDEX IN FAHRENHEIT
WCI    - WIND CHILL INDEX IN FAHRENHEIT
TC     - TEMPERATURE IN CELSIUS WHICH IS ALSO KNOWN AS
         TEMPERATURE IN CENTIGRADE
AFB    - AIR FORCE BASE
         LUKE AFB IS LUKE AIR FORCE BASE
         DAVIS-MONTHAN IS DAVIS-MONTHAN AIR FORCE BASE
NAS    - NAVAL AIR STATION
         EL CENTRO NAS IS EL CENTRO NAVAL AIR STATION
N/A    - NOT AVAILABLE




USA.gov is the U.S. government's official web portal to all federal, state and local government web resources and services.